This is the latest recevied weather packets stored in our database for station/object OE3DJB-10. If no packets are shown the sender has not sent any weather packets the latest 1 day(s).
| Time | Temp. | Humidity | Pressure | Rain* | Wind** | Luminosity | Snow |
|---|---|---|---|---|---|---|---|
| 1778336863 | 21.67° C | 42% | 1021.7 hPa | - | - | - | - |
| 1778335963 | 21.67° C | 42% | 1021.6 hPa | - | - | - | - |
| 1778335063 | 21.67° C | 42% | 1021.8 hPa | - | - | - | - |
| 1778332362 | 21.11° C | 43% | 1021.6 hPa | - | - | - | - |
| 1778331462 | 21.11° C | 43% | 1021.9 hPa | - | - | - | - |
| 1778330562 | 20.56° C | 44% | 1022.1 hPa | - | - | - | - |
| 1778329662 | 20.56° C | 44% | 1022.2 hPa | - | - | - | - |
| 1778328762 | 20° C | 45% | 1022.3 hPa | - | - | - | - |
| 1778324261 | 18.89° C | 47% | 1022.9 hPa | - | - | - | - |
| 1778323361 | 18.33° C | 46% | 1023.1 hPa | - | - | - | - |
| 1778322461 | 17.78° C | 46% | 1023 hPa | - | - | - | - |
| 1778321561 | 17.22° C | 46% | 1023.2 hPa | - | - | - | - |
| 1778317960 | 15.56° C | 47% | 1023.4 hPa | - | - | - | - |
| 1778317060 | 15.56° C | 48% | 1023.3 hPa | - | - | - | - |
| 1778316160 | 15° C | 48% | 1023.4 hPa | - | - | - | - |
| 1778315260 | 14.44° C | 48% | 1023.4 hPa | - | - | - | - |
| 1778314360 | 14.44° C | 48% | 1023.4 hPa | - | - | - | - |
| 1778311659 | 13.89° C | 48% | 1023.7 hPa | - | - | - | - |
| 1778310759 | 13.33° C | 48% | 1023.7 hPa | - | - | - | - |
| 1778309859 | 12.78° C | 48% | 1023.7 hPa | - | - | - | - |
| 1778308959 | 12.78° C | 48% | 1023.7 hPa | - | - | - | - |
| 1778308059 | 12.78° C | 48% | 1023.7 hPa | - | - | - | - |
| 1778307159 | 12.78° C | 48% | 1023.7 hPa | - | - | - | - |
| 1778306258 | 12.78° C | 48% | 1023.6 hPa | - | - | - | - |
| 1778305358 | 12.22° C | 47% | 1023.5 hPa | - | - | - | - |
* Rain since midnight (hover to see other rain measurements)
** Current wind speed in m/s (hover to see current wind gust speed)